Weather in Kedrovyy

Russia / Khanty-Mansi Autonomous Okrug — Yugra     61°28′53″N   68°14′40″E
temp.,
°C
wind,
m/s
gust,
m/s
humid.,
%
clouds,
%
prec.,
mm/h
press.,
hPa
HPBL,
m
14 april, wed
wed1423:00+4sw51588100 0.0 1024384
02:00+3wsw51490100 0.0 1021366
05:00+3w41392100 0.0 1020390
08:00+3w41198100 2.1 1021347
11:00+4w3899100 2.1 1022279
14:00+7wsw3697100 0.0 1022383
17:00+7sw3797100 0.1 1022191
20:00+6ssw3997100 0.0 1020194
15 april, thu
thu1523:00+6sw41491100 0.0 1018325
02:00+4sw411946 0.0 1016243
05:00+4sw5149351 0.0 1014306
08:00+8sw6168631 0.0 1012493
11:00+12wsw714655 0.0 1010809
14:00+14w815626 0.0 10101430
17:00+7nnw71183100 0.1 1012610
20:00+4wnw3986100 0.9 1013648
16 april, fri
fri1623:00+4nw4781100 1.2 1013543
02:00+1nw3980100 0.1 1015617
05:00−3n6117375 0.1 1019772
08:00−4n6860100 0.0 10231290
11:00−2n5742100 0.0 10261685
14:00−1n45365 0.0 10271619
17:000ne12360 0.0 10271321
20:00−2s235291 0.0 102665
17 april, sat
sat1723:00−2s51051100 0.0 1023519
02:00−2ssw71449100 0.0 1019877
05:00−1ssw81651100 0.2 10141275
08:00−1wsw81387100 1.3 1011914
11:00−1nnw81167100 3.0 10121336
14:00−2nnw81246100 0.0 10161870
17:00−3nnw7114530 0.0 10181983
20:00−7n611480 0.0 10191393
18 april, sun
sun1823:00−8n511510 0.0 10201163
02:00−9n510550 0.0 10201058
05:00−10n511615 0.0 10221065
08:00−8n6115146 0.0 10231232
11:00−5n71242100 0.0 10231942
14:00−4n71141100 0.0 10242276
17:00−3n61144100 0.0 10262377
20:00−6n48577 0.0 1028881